Weather History for Asheville, NC

Change the Weather History Date:

Tuesday, April 9, 2013

  Actual Average Record
Temperature  
Mean Temperature 63 °F 54 °F  
Max Temperature 80 °F 66 °F 85 °F (2001)
Min Temperature 46 °F 41 °F 24 °F (1972)
Degree Days  
Heating Degree Days 2 12  
Month to date heating degree days 121 115  
Since 1 July heating degree days 3772 3887  
Cooling Degree Days 0 0  
Month to date cooling degree days 0 0  
Year to date cooling degree days 0 1  
Growing Degree Days 14 (Base 50)    
Moisture  
Dew Point 50 °F    
Average Humidity 66    
Maximum Humidity 93    
Minimum Humidity 39    
Precipitation  
Precipitation 0.00 in 0.11 in 1.52 in (1961)
Month to date precipitation 0.62 1.02  
Year to date precipitation 16.08 12.28  
Snow  
Snow 0.00 in 0.00 in 0.40 in (1916)
Month to date snowfall 0.0 0.4  
Since 1 July snowfall 0.5 9.6  
Snow Depth 0.00 in    
Sea Level Pressure  
Sea Level Pressure 30.12 in    
Wind  
Wind Speed 5 mph (South)    
Max Wind Speed 18 mph    
Max Gust Speed 24 mph    
Visibility 10 miles    
Events      
T = Trace of Precipitation, MM = Missing Value Source: NWS Daily Summary

Daily Weather History Graph

Daily Weather History Graph

Search for Another Location

Airport:

Trip Planner

Search our weather history database for the weather conditions in past years. The results will help you decide how hot, cold, wet, or windy it might be!

Date:

Astronomy

Apr. 09, 2013 Rise Set
Actual Time 7:05 AM EDT 7:58 PM EDT
Civil Twilight 6:39 AM EDT 8:24 PM EDT
Nautical Twilight 6:08 AM EDT 8:55 PM EDT
Astronomical Twilight 5:37 AM EDT 9:26 PM EDT
Moon 6:26 AM EDT (4/9) 7:32 PM EDT (4/9)
Length of Visible Light 13h 44m
Length of Day
12h 53m
Waning Crescent, 1% of the Moon is Illuminated
Apr 9
Waning Crescent
Apr 10
New
Apr 18
First Quarter
Apr 25
Full
May 2
Last Quarter

Hourly Weather History & Observations

Time (EDT) Temp. Dew Point Humidity Pressure Visibility Wind Dir Wind Speed Gust Speed Precip Events Conditions
12:54 AM 62.1 °F 48.0 °F 60% 30.09 in 10.0 mi SE 3.5 mph - N/A   Clear
1:54 AM 60.1 °F 48.0 °F 64% 30.10 in 10.0 mi Calm Calm - N/A   Clear
2:54 AM 53.1 °F 46.9 °F 80% 30.10 in 10.0 mi Calm Calm - N/A   Clear
3:54 AM 51.1 °F 46.9 °F 86% 30.10 in 10.0 mi Calm Calm - N/A   Clear
4:54 AM 51.1 °F 46.9 °F 86% 30.11 in 10.0 mi Calm Calm - N/A   Clear
5:54 AM 48.9 °F 46.0 °F 90% 30.13 in 10.0 mi Calm Calm - N/A   Clear
6:54 AM 48.0 °F 45.0 °F 89% 30.15 in 10.0 mi Calm Calm - N/A   Clear
7:54 AM 48.0 °F 46.0 °F 93% 30.18 in 9.0 mi Calm Calm - N/A   Clear
8:54 AM 55.0 °F 48.9 °F 80% 30.20 in 10.0 mi Calm Calm - N/A   Clear
9:54 AM 62.1 °F 52.0 °F 70% 30.19 in 10.0 mi Calm Calm - N/A   Clear
10:54 AM 68.0 °F 52.0 °F 56% 30.19 in 10.0 mi Calm Calm - N/A   Clear
11:54 AM 72.0 °F 52.0 °F 49% 30.18 in 10.0 mi SSW 6.9 mph - N/A   Clear
12:54 PM 73.9 °F 51.1 °F 45% 30.16 in 10.0 mi East 4.6 mph - N/A   Clear
1:54 PM 75.9 °F 52.0 °F 43% 30.13 in 10.0 mi South 4.6 mph - N/A   Partly Cloudy
2:54 PM 79.0 °F 53.1 °F 40% 30.12 in 10.0 mi SW 6.9 mph 17.3 mph N/A   Scattered Clouds
3:54 PM 78.1 °F 52.0 °F 40% 30.10 in 10.0 mi South 9.2 mph - N/A   Scattered Clouds
4:54 PM 79.0 °F 54.0 °F 42% 30.08 in 10.0 mi SSW 10.4 mph - N/A   Clear
5:54 PM 77.0 °F 53.1 °F 43% 30.09 in 10.0 mi SSW 15.0 mph - N/A   Clear
6:54 PM 73.9 °F 52.0 °F 46% 30.10 in 10.0 mi SSW 13.8 mph 23.0 mph N/A   Clear
7:54 PM 71.1 °F 52.0 °F 51% 30.10 in 10.0 mi South 11.5 mph 20.7 mph N/A   Clear
8:54 PM 69.1 °F 52.0 °F 54% 30.11 in 10.0 mi SSE 6.9 mph - N/A   Clear
9:54 PM 66.9 °F 52.0 °F 59% 30.11 in 10.0 mi South 8.1 mph - N/A   Clear
10:54 PM 66.0 °F 52.0 °F 60% 30.10 in 10.0 mi South 8.1 mph - N/A   Clear
11:54 PM 64.0 °F 52.0 °F 65% 30.09 in 10.0 mi South 11.5 mph - N/A   Clear